Location: Bouillancy
(49.1149°N, 2.9308°E)
Time: 22:16:24
(UTC+00:00)

Lacrosse 5 rocket - Pass Details

Date: 30 September 2020
Orbit: 460 x 636 km, 57.0° (Epoch: 24 October)

Event Time Altitude Azimuth Distance (km) Brightness Sun altitude
Rises 18:37:31 0° 304° (WNW) 2,796 6.2 -12.1°
Reaches altitude 10° 18:39:46 10° 308° (NW) 1,922 5.1 -12.5°
Maximum altitude 18:44:06 57° 28° (NNE) 724 1.8 -13.2°
Enters shadow 18:46:54 22° 100° (E) 1,374 2.7 -13.6°
